| time (UTC) | temp C | wind direction | speed KPH | gust KPH | rain 1hr cm | rain 24hr cm | rain mn cm | humidity % | barometer mb |
| 20260506103603 | 11 | 10 | 4.8 | 16.1 | 0.00 | 0.00 | 0.00 | 63 | 1008.4 |
| 20260506102703 | 11 | 15 | 6.4 | 19.3 | 0.00 | 0.00 | 0.00 | 63 | 1008.3 |
| 20260506102017 | 11 | 20 | 4.8 | 19.3 | 0.00 | 0.00 | 0.00 | 64 | 1008.3 |
| 20260506100903 | 11 | 43 | 3.2 | 9.7 | 0.00 | 0.00 | 0.00 | 66 | 1008.1 |
| 20260506100003 | 11 | 18 | 4.8 | 12.9 | 0.00 | 0.00 | 0.00 | 66 | 1008.1 |
| 20260506095403 | 11 | 14 | 4.8 | 12.9 | 0.00 | 0.00 | 0.00 | 66 | 1008.2 |
| 20260506094503 | 11 | 22 | 4.8 | 12.9 | 0.00 | 0.00 | 0.00 | 67 | 1008.2 |
| 20260506093603 | 11 | 15 | 4.8 | 17.7 | 0.00 | 0.00 | 0.00 | 68 | 1008.1 |
| 20260506092703 | 11 | 12 | 6.4 | 17.7 | 0.00 | 0.00 | 0.00 | 67 | 1008.0 |
| 20260506091803 | 11 | 13 | 4.8 | 16.1 | 0.00 | 0.00 | 0.00 | 68 | 1008.0 |
| 20260506090903 | 11 | 18 | 4.8 | 14.5 | 0.00 | 0.00 | 0.00 | 68 | 1007.9 |
| 20260506090003 | 10 | 2 | 4.8 | 11.3 | 0.00 | 0.00 | 0.00 | 70 | 1007.9 |
| 20260506085403 | 10 | 2 | 4.8 | 12.9 | 0.00 | 0.00 | 0.00 | 70 | 1007.9 |
| 20260506084503 | 10 | 3 | 4.8 | 12.9 | 0.00 | 0.00 | 0.00 | 70 | 1007.7 |
| 20260506083603 | 10 | 4 | 4.8 | 12.9 | 0.00 | 0.00 | 0.00 | 72 | 1007.7 |
| 20260506082703 | 10 | 15 | 3.2 | 9.7 | 0.00 | 0.00 | 0.00 | 72 | 1007.8 |
| 20260506081803 | 10 | 11 | 4.8 | 11.3 | 0.00 | 0.00 | 0.00 | 72 | 1007.7 |
| 20260506080903 | 10 | 19 | 3.2 | 8.0 | 0.00 | 0.00 | 0.00 | 72 | 1007.7 |
| 20260506072917 | 10 | 12 | 3.2 | 8.0 | 0.00 | 0.00 | 0.00 | 72 | 1007.7 |
| 20260506071803 | 10 | 14 | 3.2 | 14.5 | 0.00 | 0.00 | 0.00 | 74 | 1007.7 |
| 20260506070903 | 10 | 6 | 4.8 | 16.1 | 0.00 | 0.00 | 0.00 | 77 | 1007.6 |
| 20260506070219 | 10 | 21 | 4.8 | 16.1 | 0.00 | 0.00 | 0.00 | 77 | 1007.7 |
| 20260506061803 | 10 | 5 | 3.2 | 11.3 | 0.00 | 0.00 | 0.00 | 81 | 1007.2 |
| 20260506060903 | 10 | 8 | 4.8 | 11.3 | 0.00 | 0.00 | 0.00 | 81 | 1007.1 |
| 20260506060218 | 9 | 7 | 4.8 | 16.1 | 0.00 | 0.00 | 0.00 | 82 | 1007.1 |
| 20260506050903 | 9 | 357 | 4.8 | 11.3 | 0.00 | 0.00 | 0.00 | 83 | 1007.0 |
| 20260506044503 | 9 | 355 | 4.8 | 8.0 | 0.00 | 0.00 | 0.00 | 84 | 1007.1 |
| 20260506043816 | 9 | 5 | 4.8 | 11.3 | 0.00 | 0.00 | 0.00 | 84 | 1007.0 |
| 20260506042703 | 9 | 354 | 4.8 | 11.3 | 0.00 | 0.00 | 0.00 | 84 | 1007.0 |
| 20260506042019 | 9 | 2 | 4.8 | 12.9 | 0.00 | 0.00 | 0.00 | 83 | 1007.0 |
| 20260506040903 | 9 | 2 | 4.8 | 14.5 | 0.00 | 0.00 | 0.00 | 83 | 1007.0 |
| 20260506040003 | 9 | 360 | 4.8 | 8.0 | 0.00 | 0.00 | 0.00 | 83 | 1007.0 |
| 20260506035403 | 9 | 3 | 4.8 | 8.0 | 0.00 | 0.00 | 0.00 | 83 | 1007.0 |
| 20260506034717 | 9 | 2 | 4.8 | 9.7 | 0.00 | 0.00 | 0.00 | 83 | 1007.1 |
| 20260506033816 | 9 | 355 | 3.2 | 9.7 | 0.00 | 0.00 | 0.00 | 83 | 1007.1 |
| 20260506032703 | 9 | 357 | 4.8 | 8.0 | 0.00 | 0.00 | 0.00 | 83 | 1007.2 |
| 20260506031803 | 9 | 2 | 4.8 | 9.7 | 0.00 | 0.00 | 0.00 | 83 | 1007.2 |
| 20260506030903 | 9 | 357 | 4.8 | 9.7 | 0.00 | 0.00 | 0.00 | 83 | 1007.3 |
| 20260506030003 | 9 | 351 | 4.8 | 11.3 | 0.00 | 0.00 | 0.00 | 83 | 1007.5 |
| 20260506025403 | 9 | 350 | 4.8 | 9.7 | 0.00 | 0.00 | 0.00 | 83 | 1007.5 |
| 20260506024503 | 9 | 352 | 3.2 | 8.0 | 0.00 | 0.00 | 0.00 | 83 | 1007.7 |
| 20260506023815 | 9 | 358 | 4.8 | 9.7 | 0.00 | 0.00 | 0.00 | 83 | 1007.6 |
| 20260506022703 | 8 | 2 | 3.2 | 6.4 | 0.00 | 0.00 | 0.00 | 84 | 1007.7 |
| 20260506021803 | 8 | 360 | 3.2 | 6.4 | 0.00 | 0.00 | 0.00 | 84 | 1007.7 |
| 20260506020903 | 8 | 360 | 3.2 | 8.0 | 0.00 | 0.00 | 0.00 | 85 | 1007.7 |
| 20260506020003 | 8 | 6 | 3.2 | 6.4 | 0.00 | 0.00 | 0.00 | 86 | 1007.8 |
| 20260506015403 | 8 | 9 | 3.2 | 4.8 | 0.00 | 0.00 | 0.00 | 86 | 1007.9 |
| 20260506014503 | 8 | 2 | 3.2 | 8.0 | 0.00 | 0.00 | 0.00 | 86 | 1007.9 |
| 20260506013603 | 8 | 2 | 4.8 | 8.0 | 0.00 | 0.00 | 0.00 | 86 | 1008.0 |
| 20260506012919 | 8 | 356 | 3.2 | 8.0 | 0.00 | 0.00 | 0.00 | 86 | 1008.0 |
| 20260506011803 | 8 | 4 | 4.8 | 9.7 | 0.00 | 0.00 | 0.00 | 86 | 1008.1 |
| 20260506010903 | 8 | 359 | 4.8 | 9.7 | 0.00 | 0.00 | 0.00 | 85 | 1008.1 |
| 20260506010003 | 8 | 355 | 6.4 | 12.9 | 0.00 | 0.00 | 0.00 | 84 | 1008.3 |
| 20260506005403 | 8 | 352 | 6.4 | 11.3 | 0.00 | 0.00 | 0.00 | 83 | 1008.3 |
| 20260506004716 | 8 | 356 | 4.8 | 11.3 | 0.00 | 0.00 | 0.00 | 83 | 1008.3 |
| 20260506003603 | 8 | 356 | 4.8 | 11.3 | 0.00 | 0.00 | 0.00 | 82 | 1008.3 |
| 20260506002703 | 9 | 2 | 4.8 | 12.9 | 0.00 | 0.00 | 0.00 | 82 | 1008.3 |
| 20260506001803 | 9 | 1 | 4.8 | 11.3 | 0.00 | 0.00 | 0.00 | 82 | 1008.4 |
| 20260506000903 | 9 | 358 | 4.8 | 14.5 | 0.00 | 0.00 | 0.00 | 82 | 1008.5 |
| 20260506000003 | 9 | 360 | 4.8 | 14.5 | 0.00 | 0.00 | 0.00 | 82 | 1008.5 |
| 20260505235403 | 9 | 6 | 4.8 | 14.5 | 0.00 | 0.00 | 0.00 | 81 | 1008.6 |
| 20260505234503 | 9 | 2 | 6.4 | 12.9 | 0.00 | 0.00 | 0.00 | 80 | 1008.7 |
| 20260505233603 | 9 | 4 | 3.2 | 9.7 | 0.00 | 0.00 | 0.00 | 80 | 1008.8 |
| 20260505232703 | 9 | 6 | 4.8 | 11.3 | 0.00 | 0.00 | 0.00 | 80 | 1008.7 |
| 20260505231803 | 9 | 4 | 6.4 | 20.9 | 0.00 | 0.00 | 0.00 | 81 | 1008.8 |
| 20260505230903 | 9 | 360 | 4.8 | 16.1 | 0.00 | 0.00 | 0.00 | 81 | 1008.8 |
| 20260505230216 | 9 | 2 | 4.8 | 16.1 | 0.00 | 0.00 | 0.00 | 81 | 1008.9 |
| 20260505225403 | 9 | 10 | 4.8 | 12.9 | 0.00 | 0.00 | 0.00 | 80 | 1008.9 |
| 20260505224503 | 9 | 9 | 4.8 | 9.7 | 0.00 | 0.00 | 0.00 | 80 | 1009.0 |
| 20260505223603 | 10 | 7 | 4.8 | 12.9 | 0.00 | 0.00 | 0.00 | 80 | 1009.0 |
| 20260505222703 | 10 | 3 | 4.8 | 20.9 | 0.00 | 0.00 | 0.00 | 80 | 1009.0 |
| 20260505221803 | 10 | 350 | 4.8 | 9.7 | 0.00 | 0.00 | 0.00 | 81 | 1009.1 |
| 20260505220903 | 10 | 2 | 4.8 | 12.9 | 0.00 | 0.00 | 0.00 | 81 | 1009.2 |
| 20260505220003 | 10 | 355 | 3.2 | 9.7 | 0.00 | 0.00 | 0.00 | 81 | 1009.3 |
| 20260505215403 | 10 | 348 | 3.2 | 9.7 | 0.00 | 0.00 | 0.00 | 81 | 1009.2 |
| 20260505214718 | 10 | 2 | 4.8 | 12.9 | 0.00 | 0.00 | 0.00 | 80 | 1009.2 |
| 20260505213603 | 10 | 5 | 3.2 | 8.0 | 0.00 | 0.00 | 0.00 | 80 | 1009.3 |
| 20260505212703 | 10 | 11 | 4.8 | 9.7 | 0.00 | 0.00 | 0.00 | 80 | 1009.2 |
| 20260505211803 | 10 | 2 | 4.8 | 12.9 | 0.00 | 0.00 | 0.00 | 80 | 1009.2 |
| 20260505210903 | 10 | 1 | 6.4 | 19.3 | 0.00 | 0.00 | 0.00 | 80 | 1009.4 |
| 20260505210003 | 10 | 357 | 4.8 | 9.7 | 0.00 | 0.00 | 0.00 | 80 | 1009.4 |
| 20260505205403 | 10 | 360 | 4.8 | 9.7 | 0.00 | 0.00 | 0.00 | 80 | 1009.4 |
| 20260505204503 | 10 | 356 | 4.8 | 9.7 | 0.00 | 0.00 | 0.00 | 80 | 1009.5 |
| 20260505203603 | 10 | 4 | 4.8 | 11.3 | 0.00 | 0.00 | 0.00 | 80 | 1009.5 |
| 20260505202703 | 10 | 3 | 4.8 | 14.5 | 0.00 | 0.00 | 0.00 | 80 | 1009.6 |
| 20260505201803 | 10 | 5 | 4.8 | 11.3 | 0.00 | 0.00 | 0.00 | 80 | 1009.5 |
| 20260505200903 | 10 | 357 | 4.8 | 11.3 | 0.00 | 0.00 | 0.00 | 80 | 1009.5 |
| 20260505200003 | 10 | 6 | 4.8 | 11.3 | 0.00 | 0.00 | 0.00 | 79 | 1009.5 |
| 20260505195403 | 10 | 7 | 3.2 | 11.3 | 0.00 | 0.00 | 0.00 | 79 | 1009.5 |
| 20260505194503 | 10 | 5 | 4.8 | 16.1 | 0.00 | 0.00 | 0.00 | 80 | 1009.5 |
| 20260505193603 | 10 | 3 | 3.2 | 8.0 | 0.00 | 0.00 | 0.00 | 80 | 1009.5 |
| 20260505192703 | 10 | 355 | 3.2 | 11.3 | 0.00 | 0.00 | 0.00 | 80 | 1009.4 |
| 20260505191803 | 10 | 358 | 4.8 | 11.3 | 0.00 | 0.00 | 0.00 | 80 | 1009.3 |
| 20260505190903 | 10 | 359 | 4.8 | 11.3 | 0.00 | 0.00 | 0.00 | 80 | 1009.3 |
| 20260505190003 | 10 | 3 | 3.2 | 9.7 | 0.00 | 0.00 | 0.00 | 80 | 1009.2 |
| 20260505185403 | 10 | 7 | 4.8 | 12.9 | 0.00 | 0.00 | 0.00 | 80 | 1009.1 |
| 20260505184503 | 10 | 357 | 4.8 | 12.9 | 0.00 | 0.00 | 0.00 | 80 | 1009.0 |
| 20260505183816 | 10 | 353 | 4.8 | 11.3 | 0.00 | 0.00 | 0.00 | 80 | 1009.0 |
| 20260505182916 | 10 | 7 | 4.8 | 14.5 | 0.00 | 0.00 | 0.00 | 80 | 1009.1 |
| 20260505181803 | 10 | 356 | 4.8 | 12.9 | 0.00 | 0.00 | 0.00 | 80 | 1009.0 |
| 20260505180903 | 11 | 356 | 4.8 | 11.3 | 0.00 | 0.00 | 0.00 | 80 | 1009.0 |
| 20260505180003 | 11 | 357 | 3.2 | 9.7 | 0.00 | 0.00 | 0.00 | 80 | 1009.2 |
| 20260505175617 | 11 | 4 | 3.2 | 8.0 | 0.00 | 0.00 | 0.00 | 80 | 1009.2 |
| 20260505174503 | 11 | 360 | 4.8 | 12.9 | 0.00 | 0.00 | 0.00 | 79 | 1009.3 |
| 20260505173603 | 11 | 6 | 4.8 | 12.9 | 0.00 | 0.00 | 0.00 | 79 | 1009.1 |
| 20260505172703 | 11 | 13 | 4.8 | 12.9 | 0.00 | 0.00 | 0.00 | 79 | 1009.1 |
| 20260505171803 | 11 | 8 | 4.8 | 11.3 | 0.00 | 0.00 | 0.00 | 79 | 1009.2 |
| 20260505170903 | 11 | 8 | 4.8 | 9.7 | 0.00 | 0.00 | 0.00 | 79 | 1009.3 |
| 20260505170003 | 11 | 1 | 4.8 | 9.7 | 0.00 | 0.00 | 0.00 | 78 | 1009.4 |
| 20260505165617 | 11 | 360 | 4.8 | 9.7 | 0.00 | 0.00 | 0.00 | 79 | 1009.4 |
| 20260505164716 | 11 | 19 | 3.2 | 8.0 | 0.00 | 0.00 | 0.00 | 78 | 1009.5 |
| 20260505163603 | 11 | 10 | 3.2 | 11.3 | 0.00 | 0.00 | 0.00 | 78 | 1009.5 |
| 20260505162703 | 11 | 13 | 4.8 | 11.3 | 0.00 | 0.00 | 0.00 | 78 | 1009.6 |
| 20260505161803 | 11 | 11 | 4.8 | 12.9 | 0.00 | 0.00 | 0.00 | 78 | 1009.5 |
| 20260505160903 | 11 | 11 | 4.8 | 12.9 | 0.00 | 0.03 | 0.00 | 78 | 1009.4 |
| 20260505152703 | 11 | 11 | 4.8 | 12.9 | 0.00 | 0.03 | 0.00 | 76 | 1009.6 |
| 20260505151803 | 12 | 2 | 4.8 | 12.9 | 0.00 | 0.03 | 0.00 | 76 | 1009.6 |
| 20260505150903 | 12 | 6 | 3.2 | 9.7 | 0.00 | 0.03 | 0.00 | 75 | 1009.6 |
| 20260505124503 | 11 | 7 | 3.2 | 14.5 | 0.00 | 0.03 | 0.00 | 79 | 1010.4 |
| 20260505123603 | 11 | 13 | 1.6 | 6.4 | 0.00 | 0.05 | 0.00 | 80 | 1010.5 |
| 20260505122703 | 11 | 131 | 1.6 | 4.8 | 0.00 | 0.10 | 0.00 | 80 | 1010.6 |
| 20260505121803 | 11 | 43 | 3.2 | 8.0 | 0.00 | 0.23 | 0.00 | 80 | 1010.5 |
| 20260505120903 | 11 | 22 | 3.2 | 8.0 | 0.00 | 0.51 | 0.00 | 80 | 1010.5 |
| 20260505120003 | 11 | 4 | 3.2 | 12.9 | 0.00 | 0.99 | 0.00 | 80 | 1010.5 |
| 20260505115403 | 11 | 8 | 3.2 | 12.9 | 0.00 | 1.32 | 0.00 | 80 | 1010.6 |
| 20260505114503 | 11 | 22 | 3.2 | 8.0 | 0.00 | 1.37 | 0.00 | 81 | 1010.6 |
| 20260505113603 | 11 | 15 | 3.2 | 11.3 | 0.00 | 1.37 | 0.00 | 80 | 1010.5 |
| 20260505112703 | 11 | 10 | 3.2 | 11.3 | 0.00 | 1.37 | 0.00 | 82 | 1010.6 |
| 20260505111803 | 11 | 60 | 1.6 | 6.4 | 0.00 | 1.37 | 0.00 | 82 | 1010.7 |
| 20260505110903 | 11 | 18 | 3.2 | 11.3 | 0.00 | 1.37 | 0.00 | 82 | 1010.8 |
| 20260505110219 | 10 | 10 | 4.8 | 14.5 | 0.00 | 1.37 | 0.00 | 81 | 1010.8 |